When you browse on this site, cookies collect data to enhance your experience and personalize the content and advertising you see.
Visit our Privacy Policy to learn more. By continuing to use the site, you agree to this use of cookies and data.
  • In France
  • List of Countries
  • For 7 days
  • Water Temperature
  • Satellite Maps
  • Weather Map
  • Weather Widgets
  • user-avatar
    Login

    Hourly Weather Sidi Bu-l-Abbas

    Today, 19 January, Saturday

    Time Temperature Precipitation Wind Pressure Humidity
    00:00 +8°C° 0 mm 3 mps 721 mmHg 90%
    01:00 +7°C° 0.1 mm 3 mps 720 mmHg 89%
    02:00 +7°C° 0.1 mm 3 mps 720 mmHg 89%
    03:00 +7°C° 0.1 mm 3 mps 720 mmHg 88%
    04:00 +6°C° 0.1 mm 4 mps 720 mmHg 88%
    05:00 +6°C° 0.1 mm 4 mps 720 mmHg 89%
    06:00 +6°C° 0.1 mm 5 mps 720 mmHg 89%
    07:00 +7°C° 0.1 mm 5 mps 721 mmHg 86%
    08:00 +7°C° 0.1 mm 6 mps 721 mmHg 84%
    09:00 +8°C° 0.1 mm 6 mps 721 mmHg 81%
    10:00 +8°C° 0.2 mm 6 mps 721 mmHg 79%
    11:00 +8°C° 0.2 mm 5 mps 721 mmHg 76%
    12:00 +9°C° 0.2 mm 5 mps 721 mmHg 74%
    13:00 +9°C° 0 mm 5 mps 721 mmHg 71%
    14:00 +10°C° 0 mm 5 mps 720 mmHg 69%
    15:00 +10°C° 0 mm 5 mps 720 mmHg 66%
    16:00 +11°C° 0 mm 4 mps 720 mmHg 69%
    17:00 +10°C° 0 mm 4 mps 720 mmHg 71%
    18:00 +10°C° 0 mm 3 mps 720 mmHg 73%
    19:00 +10°C° 0 mm 3 mps 719 mmHg 73%
    20:00 +10°C° 0 mm 3 mps 719 mmHg 73%
    21:00 +10°C° 0 mm 3 mps 719 mmHg 73%
    22:00 +10°C° 0.1 mm 4 mps 719 mmHg 74%
    23:00 +10°C° 0.1 mm 4 mps 719 mmHg 76%

    Tomorrow, 20 January, Sunday

    Time Temperature Precipitation Wind Pressure Humidity
    00:00 +10°C° 0.1 mm 4 mps 719 mmHg 77%
    01:00 +10°C° 0.2 mm 4 mps 718 mmHg 76%
    02:00 +9°C° 0.2 mm 5 mps 718 mmHg 75%
    03:00 +9°C° 0.2 mm 5 mps 717 mmHg 74%
    04:00 +9°C° 0.2 mm 5 mps 717 mmHg 77%
    05:00 +9°C° 0.2 mm 6 mps 717 mmHg 81%
    06:00 +8°C° 0.2 mm 6 mps 717 mmHg 84%
    07:00 +9°C° 0 mm 7 mps 717 mmHg 82%
    08:00 +10°C° 0 mm 8 mps 717 mmHg 80%
    09:00 +11°C° 0 mm 9 mps 717 mmHg 77%
    10:00 +11°C° 0.1 mm 11 mps 717 mmHg 75%
    11:00 +10°C° 0.1 mm 12 mps 717 mmHg 72%
    12:00 +12°C° 0.1 mm 13 mps 717 mmHg 69%
    13:00 +12°C° 0.5 mm 13 mps 716 mmHg 68%
    14:00 +12°C° 0.5 mm 13 mps 716 mmHg 68%
    15:00 +12°C° 0.5 mm 12 mps 715 mmHg 67%
    16:00 +12°C° 0.6 mm 12 mps 716 mmHg 72%
    17:00 +11°C° 0.6 mm 11 mps 716 mmHg 77%
    18:00 +9°C° 0.6 mm 11 mps 716 mmHg 82%
    19:00 +9°C° 0.5 mm 11 mps 717 mmHg 84%
    20:00 +8°C° 0.5 mm 10 mps 717 mmHg 86%
    21:00 +8°C° 0.5 mm 10 mps 718 mmHg 87%
    22:00 +8°C° 1.5 mm 9 mps 718 mmHg 89%
    23:00 +7°C° 1.5 mm 8 mps 718 mmHg 91%

    Day after tomorrow, 21 January, Monday

    Time Temperature Precipitation Wind Pressure Humidity
    00:00 +7°C° 1.5 mm 8 mps 718 mmHg 92%
    01:00 +8°C° 1.5 mm 6 mps 719 mmHg 93%
    02:00 +8°C° 1.5 mm 5 mps 719 mmHg 93%
    03:00 +8°C° 1.5 mm 3 mps 719 mmHg 93%
    04:00 +8°C° 0.3 mm 3 mps 719 mmHg 91%
    05:00 +7°C° 0.3 mm 4 mps 719 mmHg 90%
    06:00 +7°C° 0.3 mm 4 mps 719 mmHg 89%
    07:00 +7°C° 0.1 mm 4 mps 720 mmHg 85%
    08:00 +8°C° 0.1 mm 5 mps 720 mmHg 81%
    09:00 +8°C° 0.1 mm 5 mps 721 mmHg 77%
    10:00 +9°C° 0.2 mm 5 mps 721 mmHg 72%
    11:00 +9°C° 0.2 mm 6 mps 721 mmHg 68%
    12:00 +10°C° 0.2 mm 6 mps 721 mmHg 63%
    13:00 +10°C° 0.2 mm 6 mps 721 mmHg 63%
    14:00 +10°C° 0.2 mm 7 mps 721 mmHg 62%
    15:00 +10°C° 0.2 mm 7 mps 721 mmHg 61%
    16:00 +9°C° 0.1 mm 6 mps 721 mmHg 65%
    17:00 +8°C° 0.1 mm 4 mps 721 mmHg 68%
    18:00 +8°C° 0.1 mm 3 mps 721 mmHg 72%
    19:00 +8°C° 0 mm 2 mps 722 mmHg 73%
    20:00 +7°C° 0 mm 2 mps 722 mmHg 75%
    21:00 +7°C° 0 mm 2 mps 722 mmHg 76%
    22:00 +7°C° 0.2 mm 2 mps 723 mmHg 77%
    23:00 +7°C° 0.2 mm 3 mps 723 mmHg 78%

    22 January, Tuesday

    Time Temperature Precipitation Wind Pressure Humidity
    00:00 +7°C° 0.2 mm 3 mps 723 mmHg 79%
    01:00 +7°C° 0.2 mm 3 mps 723 mmHg 79%
    02:00 +5°C° 0.2 mm 3 mps 722 mmHg 79%
    03:00 +5°C° 0.2 mm 4 mps 722 mmHg 79%
    04:00 +5°C° 0.1 mm 3 mps 722 mmHg 79%
    05:00 +5°C° 0.1 mm 3 mps 722 mmHg 79%
    06:00 +4°C° 0.1 mm 3 mps 722 mmHg 80%
    07:00 +5°C° 0 mm 3 mps 723 mmHg 76%
    08:00 +7°C° 0 mm 3 mps 723 mmHg 73%
    09:00 +8°C° 0 mm 3 mps 723 mmHg 70%
    10:00 +7°C° 0.1 mm 5 mps 723 mmHg 69%
    11:00 +8°C° 0.1 mm 6 mps 723 mmHg 68%
    12:00 +9°C° 0.1 mm 7 mps 723 mmHg 67%
    13:00 +9°C° 0.1 mm 8 mps 722 mmHg 65%
    14:00 +8°C° 0.1 mm 10 mps 721 mmHg 63%
    15:00 +8°C° 0.1 mm 11 mps 720 mmHg 61%
    16:00 +8°C° 0 mm 10 mps 720 mmHg 65%
    17:00 +7°C° 0 mm 9 mps 719 mmHg 70%
    18:00 +6°C° 0 mm 8 mps 719 mmHg 74%
    19:00 +6°C° 0 mm 9 mps 719 mmHg 75%
    20:00 +6°C° 0 mm 10 mps 719 mmHg 76%
    21:00 +7°C° 0 mm 10 mps 719 mmHg 77%
    22:00 +6°C° 0.5 mm 10 mps 718 mmHg 80%
    23:00 +6°C° 0.5 mm 10 mps 718 mmHg 83%

    23 January, Wednesday

    Time Temperature Precipitation Wind Pressure Humidity
    00:00 +6°C° 0.5 mm 10 mps 717 mmHg 86%
    01:00 +6°C° 2.6 mm 11 mps 716 mmHg 85%
    02:00 +5°C° 2.6 mm 12 mps 715 mmHg 85%
    03:00 +7°C° 2.6 mm 13 mps 715 mmHg 84%
    04:00 +7°C° 1.1 mm 13 mps 715 mmHg 82%
    05:00 +6°C° 1.1 mm 14 mps 715 mmHg 81%
    06:00 +6°C° 1.1 mm 15 mps 714 mmHg 80%
    07:00 +6°C° 0.8 mm 14 mps 715 mmHg 80%
    08:00 +5°C° 0.8 mm 13 mps 716 mmHg 81%
    09:00 +5°C° 0.8 mm 12 mps 716 mmHg 81%
    10:00 +7°C° 0.3 mm 12 mps 716 mmHg 79%
    11:00 +7°C° 0.3 mm 12 mps 716 mmHg 76%
    12:00 +7°C° 0.3 mm 13 mps 716 mmHg 74%
    13:00 +6°C° 0 mm 14 mps 715 mmHg 72%
    14:00 +8°C° 0 mm 15 mps 714 mmHg 69%
    15:00 +7°C° 0 mm 16 mps 713 mmHg 67%
    16:00 +7°C° 0 mm 17 mps 713 mmHg 68%
    17:00 +6°C° 0 mm 17 mps 713 mmHg 70%
    18:00 +6°C° 0 mm 17 mps 712 mmHg 71%
    19:00 +6°C° 0 mm 17 mps 713 mmHg 74%
    20:00 +6°C° 0 mm 18 mps 713 mmHg 77%
    21:00 +6°C° 0 mm 18 mps 713 mmHg 80%
    22:00 +6°C° 0.1 mm 18 mps 713 mmHg 81%
    23:00 +6°C° 0.1 mm 17 mps 713 mmHg 81%

    24 January, Thursday

    Time Temperature Precipitation Wind Pressure Humidity
    00:00 +6°C° 0.1 mm 17 mps 712 mmHg 82%
    01:00 +6°C° 0.7 mm 16 mps 712 mmHg 83%
    02:00 +6°C° 0.7 mm 15 mps 712 mmHg 84%
    03:00 +6°C° 0.7 mm 14 mps 712 mmHg 85%
    04:00 +7°C° 1.6 mm 13 mps 712 mmHg 87%
    05:00 +7°C° 1.6 mm 12 mps 711 mmHg 88%
    06:00 +6°C° 1.6 mm 11 mps 711 mmHg 90%
    07:00 +6°C° 1.7 mm 10 mps 711 mmHg 90%
    08:00 +5°C° 1.7 mm 8 mps 711 mmHg 90%
    09:00 +5°C° 1.7 mm 7 mps 711 mmHg 90%
    10:00 +4°C° 1.8 mm 6 mps 711 mmHg 90%
    11:00 +4°C° 1.8 mm 6 mps 711 mmHg 90%
    12:00 +5°C° 1.8 mm 5 mps 711 mmHg 90%
    13:00 +3°C° 1.9 mm 5 mps 710 mmHg 87%
    14:00 +4°C° 1.9 mm 4 mps 710 mmHg 85%
    15:00 +3°C° 1.9 mm 3 mps 709 mmHg 83%
    16:00 +3°C° 1.6 mm 3 mps 710 mmHg 85%
    17:00 +4°C° 1.6 mm 2 mps 710 mmHg 88%
    18:00 +4°C° 1.6 mm 2 mps 710 mmHg 90%
    19:00 +3°C° 1.1 mm 2 mps 711 mmHg 90%
    20:00 +3°C° 1.1 mm 2 mps 711 mmHg 91%
    21:00 +3°C° 1.1 mm 2 mps 712 mmHg 91%
    22:00 +3°C° 0.1 mm 2 mps 712 mmHg 91%
    23:00 +3°C° 0.1 mm 2 mps 713 mmHg 90%
    Show more